Location: Azul
(36.7830°S, 59.8500°W)
Time: 23:10:43
(UTC-03:00)

XW-2F - Pass Details

Date: 25 October 2021
Orbit: 497 x 515 km, 97.5° (Epoch: 27 November)

Event Time Altitude Azimuth Distance (km) Brightness Sun altitude
Rises 05:19:20 0° 57° (ENE) 2,626 ? -8.9°
Reaches altitude 10° 05:22:22 10° 84° (E) 1,755 ? -8.3°
Maximum altitude 05:24:10 13° 113° (ESE) 1,574 ? -8.0°
Drops below altitude 10° 05:25:59 10° 141° (SE) 1,771 ? -7.6°
Sets 05:29:03 0° 169° (SSE) 2,673 ? -7.1°
